• Join FlightAware (Why Join?)
  • Login
  • US Flag 
08:08PM EDT


 

Airport Tracker/Info


-or-


 

Live Flight TrackerFlight Track Log ✈ SWA1887 ✈ 28-Apr-2013 ✈ KABQ - KDAL

Flight Track Log - Related Links

Times and Time Zones

All times are in EDT time to prevent confusion due to time zone crossing. See the SWA1887 flight status page for this flight to view local times or setup timezone preferences in your user account.

Time Position Orientation Groundspeed Altitude Reporting Facility
EDT Latitude Longitude Course Direction KTS MPH feet Rate Location/Type
12:47PM 35.0375 -106.5575 111° Southeast 182 209 6,700  Level Albuquerque Center
12:48PM 34.9789 -106.5156 150° Southeast 245 282 8,900 1,860 Climbing Albuquerque Center
12:49PM 34.9547 -106.5114 172° South 242 278 9,600 2,400 Climbing Albuquerque Center
12:49PM 34.9044 -106.5167 185° South 291 335 11,300 2,880 Climbing Albuquerque Center
12:50PM 34.8733 -106.5167 180° South 271 312 12,600 2,460 Climbing Albuquerque Center
12:50PM 34.8133 -106.4964 164° South 346 398 14,100 2,220 Climbing Albuquerque Center
12:51PM 34.7986 -106.4617 117° Southeast 351 404 14,900 3,060 Climbing Albuquerque Center
12:52PM 34.7842 -106.3378 98° East 371 427 18,400 3,180 Climbing Albuquerque Center
12:53PM 34.7667 -106.2036 99° East 373 429 21,500 2,640 Climbing Albuquerque Center
12:54PM 34.7531 -106.0697 97° East 389 448 23,900 2,520 Climbing Albuquerque Center
12:55PM 34.7489 -105.9067 92° East 407 468 26,800 2,340 Climbing Albuquerque Center
12:56PM 34.7447 -105.7667 92° East 411 473 28,800 1,740 Climbing Albuquerque Center
12:57PM 34.7392 -105.6211 93° East 423 487 30,500 1,740 Climbing Albuquerque Center
12:58PM 34.7347 -105.4736 92° East 431 496 32,400 1,800 Climbing Albuquerque Center
12:59PM 34.7294 -105.3286 92° East 429 494 34,300 1,380 Climbing Albuquerque Center
01:00PM 34.7247 -105.1811 92° East 432 497 35,300 1,020 Climbing Albuquerque Center
01:01PM 34.7186 -105.0300 93° East 441 507 36,500 1,200 Climbing Albuquerque Center
01:02PM 34.7114 -104.8531 93° East 446 513 37,900 1,080 Climbing Albuquerque Center
01:03PM 34.7042 -104.7003 93° East 449 517 38,800 480 Climbing Albuquerque Center
01:04PM 34.6950 -104.5481 94° East 450 518 39,000 60 Climbing Albuquerque Center
01:05PM 34.6761 -104.3953 99° East 453 521 39,000  Level Albuquerque Center
01:06PM 34.6600 -104.2422 97° East 456 525 39,000  Level Albuquerque Center
01:07PM 34.6406 -104.0636 97° East 456 525 39,000  Level Albuquerque Center
01:08PM 34.6228 -103.9119 98° East 454 522 39,000  Level Albuquerque Center
01:09PM 34.6058 -103.7600 98° East 453 521 39,000  Level Albuquerque Center
01:10PM 34.5883 -103.6081 98° East 452 520 39,000  Level Albuquerque Center
01:11PM 34.5706 -103.4556 98° East 454 522 39,000  Level Albuquerque Center
01:12PM 34.5519 -103.3025 98° East 455 524 39,000  Level Albuquerque Center
01:13PM 34.5333 -103.1478 98° East 459 528 39,000  Level Albuquerque Center
01:14PM 34.5108 -102.9672 99° East 462 532 39,000  Level Albuquerque Center
01:16PM 34.4919 -102.8114 98° East 463 533 39,000  Level Albuquerque Center
01:17PM 34.4753 -102.6572 97° East 466 536 39,000  Level Albuquerque Center
01:18PM 34.4594 -102.5022 97° East 466 536 39,000  Level Albuquerque Center
01:19PM 34.4442 -102.3489 97° East 464 534 39,000  Level Albuquerque Center
01:20PM 34.4275 -102.1947 97° East 465 535 39,000  Level Albuquerque Center
01:21PM 34.4081 -102.0092 97° East 465 535 39,000  Level Albuquerque Center
01:22PM 34.3906 -101.8558 98° East 464 534 39,000  Level Albuquerque Center
01:23PM 34.3739 -101.7028 97° East 463 533 39,000  Level Albuquerque Center
01:24PM 34.3606 -101.5769 97° East 457 526 39,000  Level Fort Worth Center
01:25PM 34.3411 -101.4075 98° East 468 539 39,000  Level Fort Worth Center
01:26PM 34.3231 -101.2533 98° East 468 539 39,000  Level Fort Worth Center
01:27PM 34.3067 -101.1017 97° East 468 539 39,000  Level Fort Worth Center
01:28PM 34.2881 -100.9475 98° East 468 539 39,000  Level Fort Worth Center
01:29PM 34.2736 -100.7936 96° East 468 539 39,000  Level Fort Worth Center
01:30PM 34.2525 -100.6422 100° East 463 533 39,000  Level Fort Worth Center
01:31PM 34.2378 -100.4908 97° East 463 533 39,000  Level Fort Worth Center
01:32PM 34.2161 -100.3419 100° East 463 533 39,000  Level Fort Worth Center
01:33PM 34.1989 -100.1856 98° East 455 524 39,000  Level Fort Worth Center
01:34PM 34.1833 -100.0344 97° East 455 524 39,000  Level Fort Worth Center
01:35PM 34.1656 -99.8808 98° East 460 529 39,000 -360 Level Fort Worth Center
01:36PM 34.1414 -99.7322 101° East 460 529 38,300 -840 Descending Fort Worth Center
01:37PM 34.1003 -99.5856 109° East 460 529 37,400 -960 Descending Fort Worth Center
01:38PM 34.0567 -99.4367 109° East 465 535 36,400 -1,020 Descending Fort Worth Center
01:39PM 34.0131 -99.2903 110° East 465 535 35,400 -960 Descending Fort Worth Center
01:40PM 33.9672 -99.1439 111° Southeast 465 535 34,500 -1,020 Descending Fort Worth Center
01:41PM 33.9253 -99.0006 109° East 465 535 33,400 -1,080 Descending Fort Worth Center
01:42PM 33.8833 -98.8597 110° East 460 529 32,400 -1,320 Descending Fort Worth Center
01:43PM 33.8450 -98.7414 111° Southeast 441 507 30,800 -1,800 Descending Fort Worth Center
01:44PM 33.8044 -98.6133 111° Southeast 414 476 28,800 -1,980 Descending Fort Worth Center
01:45PM 33.7658 -98.4853 110° East 408 470 26,900 -1,560 Descending Fort Worth Center
01:46PM 33.7294 -98.3575 109° East 402 463 25,700 -1,080 Descending Fort Worth Center
01:47PM 33.6886 -98.2247 110° East 411 473 24,800 -1,440 Descending Fort Worth Center
01:48PM 33.6478 -98.0922 110° East 416 479 22,900 -2,160 Descending Fort Worth Center
01:49PM 33.6025 -97.9547 112° Southeast 410 472 20,500 -2,400 Descending Fort Worth Center
01:50PM 33.5653 -97.8347 110° East 398 458 18,200 -2,400 Descending Fort Worth Center
01:51PM 33.5261 -97.7150 111° Southeast 386 444 15,800 -2,400 Descending Fort Worth Center
01:52PM 33.4908 -97.5978 110° East 381 438 13,500 -2,280 Descending Fort Worth Center
01:53PM 33.4553 -97.4956 113° Southeast 373 429 11,300 -1,800 Descending Fort Worth Center
01:54PM 33.3864 -97.4036 132° Southeast 349 402 10,000 -1,140 Descending Fort Worth Center
01:55PM 33.3761 -97.3139 98° East 292 336 9,100 -1,260 Descending Fort Worth Center
01:56PM 33.3656 -97.2069 97° East 292 336 7,500 -1,500 Descending Fort Worth Center
01:57PM 33.3633 -97.1200 92° East 292 336 6,200 -1,380 Descending Fort Worth Center
01:58PM 33.3547 -97.0181 96° East 286 329 4,800 -1,140 Descending Fort Worth Center
01:59PM 33.3356 -96.9386 106° East 275 316 4,000 -420 Descending Fort Worth Center
02:00PM 33.2706 -96.8867 146° Southeast 249 287 4,000  Level Fort Worth Center
02:01PM 33.2161 -96.8547 154° Southeast 249 287 4,000  Level Fort Worth Center
02:02PM 33.1411 -96.8578 182° South 244 281 4,000 -540 Level Fort Worth Center
02:03PM 33.0786 -96.8756 193° South 252 290 3,000 -600 Descending Fort Worth Center
02:03PM 33.0333 -96.8833 188° South 199 229 3,000 -360 Level Dallas / Fort Worth TRACON
02:04PM 32.9833 -96.9000 196° South 199 229 2,400 -540 Descending Dallas / Fort Worth TRACON
02:05PM 32.9333 -96.9000 180° South 192 221 2,000 -540 Descending Dallas / Fort Worth TRACON
02:06PM 32.8833 -96.8833 164° South 157 181 1,400 -600 Descending Dallas / Fort Worth TRACON
02:08PM 32.8471 -96.8518 140° Southeast  Level Estimated
02:15PM 32.8471 -96.8518 140° Southeast  Level Estimated
02:16PM 32.8471 -96.8518 140° Southeast  Level Estimated